MST,Max TemperatureF,Mean TemperatureF,Min TemperatureF,Max Dew PointF,MeanDew PointF,Min DewpointF,Max Humidity, Mean Humidity, Min Humidity, Max Sea Level PressureIn, Mean Sea Level PressureIn, Min Sea Level PressureIn, Max VisibilityMiles, Mean VisibilityMiles, Min VisibilityMiles, Max Wind SpeedMPH, Mean Wind SpeedMPH, Max Gust SpeedMPH,PrecipitationIn, CloudCover, Events, WindDirDegrees
2012-11-1,87,71,55,29,26,23,30,20,9,29.97,29.90,29.82,10,10,10,15,7,22,0.00,0,,170
2012-11-2,83,69,55,39,32,28,37,27,16,29.94,29.88,29.81,10,10,10,12,6,21,0.00,0,,177
2012-11-3,83,69,55,40,37,32,51,34,16,30.06,29.97,29.91,10,10,10,13,6,20,0.00,0,,149
2012-11-4,87,70,53,36,32,29,46,30,13,30.07,30.02,29.97,10,10,10,12,6,15,0.00,0,,134
2012-11-5,89,71,52,30,26,20,38,23,8,30.09,30.03,29.95,10,10,10,12,6,14,0.00,0,,147
2012-11-6,90,71,52,25,23,20,29,19,8,30.10,30.01,29.95,10,10,10,13,6,15,0.00,0,,141
2012-11-7,90,72,54,30,26,23,30,20,9,30.10,29.95,29.84,10,10,10,14,6,20,0.00,0,,173
2012-11-8,84,72,60,52,34,27,53,33,13,30.03,29.88,29.81,10,10,10,26,5,38,T,2,,179
2012-11-9,79,70,60,55,49,45,67,50,32,29.86,29.79,29.70,10,10,10,28,11,37,0.02,4,Rain,217
2012-11-10,62,54,46,50,36,20,86,53,20,30.04,29.92,29.75,10,10,7,25,9,35,0.01,6,Rain,289
2012-11-11,59,48,36,26,19,12,59,38,17,30.28,30.19,30.05,10,10,10,13,5,23,0.00,0,,309
2012-11-12,70,53,35,17,11,8,47,28,9,30.24,30.14,30.05,10,10,10,28,12,36,0.00,0,,109
2012-11-13,74,56,38,16,10,4,37,23,8,30.19,30.08,29.98,10,10,10,17,6,20,0.00,0,,89
2012-11-14,83,64,44,14,10,4,25,15,5,30.11,30.04,29.95,10,10,10,14,6,21,0.00,0,,143
2012-11-15,77,63,48,24,20,13,29,21,12,30.15,30.06,29.99,10,10,10,15,7,18,0.00,0,,159
2012-11-16,79,66,53,28,23,18,38,25,11,30.08,30.04,30.00,10,10,10,13,6,18,0.00,1,,171
2012-11-17,77,65,52,50,32,23,35,29,22,30.07,30.03,29.97,10,10,10,13,5,21,0.00,3,,141
2012-11-18,77,66,55,52,47,42,86,59,31,30.12,30.04,29.99,10,10,10,18,5,21,0.00,1,,170
2012-11-19,76,63,49,45,42,38,74,51,27,30.17,30.12,30.07,10,10,10,10,4,16,0.00,0,,167
2012-11-20,79,63,47,40,37,34,76,49,21,30.17,30.05,29.96,10,10,10,23,6,26,0.00,0,,133
2012-11-21,81,67,53,39,36,31,55,37,19,30.03,29.97,29.91,10,10,10,10,4,15,0.00,1,,156
2012-11-22,81,65,48,33,30,20,56,33,10,30.10,30.04,29.98,10,10,10,12,4,14,0.00,0,,164
2012-11-23,85,67,49,31,29,25,42,27,12,30.17,30.10,30.04,10,10,10,17,8,22,0.00,0,,118
2012-11-24,84,71,57,33,30,28,33,24,15,30.09,29.99,29.90,10,10,10,24,10,31,0.00,0,,120
2012-11-25,82,67,51,33,24,9,50,28,6,29.96,29.88,29.80,10,10,10,17,8,22,0.00,0,,163
2012-11-26,78,63,47,28,24,19,34,23,12,30.09,29.99,29.91,10,10,10,12,5,15,0.00,0,,152
2012-11-27,82,65,48,30,26,23,39,26,13,30.17,30.08,30.00,10,10,10,15,7,21,0.00,0,,155
2012-11-28,79,65,51,35,32,29,44,32,19,30.15,30.09,30.02,10,10,10,13,6,26,0.00,0,,168
2012-11-29,75,61,47,36,33,25,61,39,17,30.17,30.12,30.06,10,10,10,12,6,21,0.00,0,,180
2012-11-30,76,62,47,40,35,29,59,42,25,30.15,30.08,30.00,10,10,10,13,5,14,0.00,0,,185